Current weather by "City, St" or "zip code"  
 

Current Conditions: Emigrant Gap, Blue Canyon Nyack Airport, CA

Fair


48.0 F

Last Updated on May 21 2022, 12:52 am PDT
Humidity: 24%
Wind Speed: E 8.1 G 19.6 mph
Barometer 29.94 in
Dewpoint: 12.9 F
Visibility: 10.00 mi
Precip: --
Heat Index: NA
Wind Chill: 44 F
Current conditions at:

Emigrant Gap, Blue Canyon Nyack Airport, CA (KBLU)

Lat: 39.27611 Lon: 120.70806

Local Radar Image active severe weather and emergency alerts image image weather storm and storm spotter reports image weather observation monitoring service image
Local
Radar
Active
Alerts
Storm Reports Obs
Monitoring

Sign-up For Email & Text Message Weather Alert Notification Services



Advertise Here

Observation History for Emigrant Gap, Blue Canyon Nyack Airport, CA


Time Wind
(mph)
Vis
(mi)
Weather Precip (in) Temperature (F) Relative
Humidity
Wind
Chill
(F)
Heat
Index
(F)
Pressure
Air Dwpt altimeter
(in)
sea level
(mb)
Rmks
12:52 am PDT E 8.1 G 19.6 10.00 Fair -- 48.0 12.9 24% 44 NA 29.94 1009.4
11:52 pm PDT E 8.1 G 18.4 10.00 Fair -- 49.0 12.9 23% 46 NA 29.94 1009.6
10:52 pm PDT 6.9 10.00 Fair -- 49.0 12.9 23% 46 NA 29.95 1010.0
9:52 pm PDT E 9.2 G 18.4 10.00 Fair -- 49.0 12.0 22% 45 NA 29.95 1010.4
8:52 pm PDT 5.8 10.00 Fair -- 49.0 12.9 23% 47 NA 29.93 1010.3
6:52 pm PDT NE 9.2 10.00 Fair -- 56.0 15.1 20% 54 NA 29.91 1009.1
5:52 pm PDT 4.6 10.00 Fair -- 58.0 12.0 16% 58 NA 29.90 1008.7
4:52 pm PDT N 8.1 10.00 Fair -- 59.0 10.9 15% 58 NA 29.89 1008.2
2:52 pm PDT 6.9 G 19.6 10.00 Fair -- 56.0 8.1 14% 54 NA 29.91 1008.6
1:52 pm PDT 5.8 G 19.6 10.00 Fair -- 56.0 10.9 17% 55 NA 29.90 1008.0
12:52 pm PDT 6.9 G 19.6 10.00 Fair -- 54.0 12.0 19% 52 NA 29.89 1007.4
11:52 am PDT E 12.7 G 26.5 10.00 Fair -- 52.0 12.9 21% 48 NA 29.90 1007.6
8:52 am PDT NE 16.1 G 29.9 10.00 Fair -- 43.0 14.0 31% 35 NA 29.88 1007.9
7:52 am PDT E 12.7 G 29.9 10.00 Fair -- 41.0 16.0 36% 34 NA 29.87 1007.3
6:52 am PDT NE 16.1 G 31.1 10.00 Fair -- 39.0 18.0 43% 30 NA 29.86 1006.9
4:52 am PDT NE 11.5 G 24.2 10.00 Fair -- 39.0 17.1 41% 32 NA 29.86 1006.3
2:52 am PDT NE 11.5 G 21.9 10.00 Fair -- 43.0 16.0 34% 37 NA 29.88 1006.5
1:52 am PDT E 11.5 G 18.4 10.00 Fair -- 46.0 14.0 27% 41 NA 29.90 1006.5

Regional Weather Observation


Nevada County Air Park, CA (KGOO)

Fair
59.0 F

Marysville, Beale Air Force Base, CA (KBAB)

Fair with Haze
61.0 F

Truckee-Tahoe, CA (KTRK)

Fair
30.0 F

Oroville Municipal Airport, CA (KOVE)

Fair
66.0 F

Marysville, Yuba County Airport, CA (KMYV)

NULL
59.0 F

Chico Municipal Airport, CA (KCIC)

Fair
63.0 F

Advertise Here


Advertise Here